Terug naar catalogus

STARLINK-30423

ActiefCommunicatieVLEO
NORAD 57843·PAYLOAD·🇺🇸 United States

Gelanceerd Sep 12, 2023 vanaf Vandenberg Space Force Base

Loading…

Volgende Passages (komende 24 uur)

TLE

VersSource: CelesTrak SupGP

Epoch: Sep 15, 2026, 02:50 UTC

1 57843C 23141D   26258.11854167  .00043355  00000+0  13940-2 0  2580
2 57843  53.1574 122.8155 0001314  77.3788  66.9429 15.31683949    13

Volg STARLINK-30423 in realtime met AllMySat

Download on the App Store